Weather History for KQIR - December, 2013

Change the Weather History Date:

Sunday, December 29, 2013

  Actual Average Record
Temperature  
Mean Temperature 58 °F -  
Max Temperature 70 °F - - ()
Min Temperature 47 °F - - ()
Degree Days  
Heating Degree Days 6    
Growing Degree Days 8 (Base 50)    
Moisture  
Dew Point 46 °F    
Average Humidity 64    
Maximum Humidity 79    
Minimum Humidity 47    
Precipitation  
Precipitation 0.00 in - - ()
Sea Level Pressure  
Sea Level Pressure 30.16 in    
Wind  
Wind Speed 5 mph ()    
Max Wind Speed 12 mph    
Max Gust Speed -    
Visibility 6.2 miles    
Events      
T = Trace of Precipitation, MM = Missing Value Source: Averaged Metar Reports

Daily Weather History Graph

Daily Weather History Graph

Search for Another Location

Airport or City:

Trip Planner

Search our weather history database for the weather conditions in past years. The results will help you decide how hot, cold, wet, or windy it might be!

Date:

Astronomy

Dec. 29, 2013 Rise Set
Actual Time 6:19 AM AST 4:54 PM AST
Civil Twilight 5:54 AM AST 5:19 PM AST
Nautical Twilight 5:25 AM AST 5:47 PM AST
Astronomical Twilight 4:57 AM AST 6:16 PM AST
Moon 2:46 AM AST (12/29) 2:04 PM AST (12/29)
Length of Visible Light 11h 25m
Length of Day
10h 35m
Waning Crescent, 13% of the Moon is Illuminated
Dec 29
Waning Crescent
Jan 1
New
Jan 8
First Quarter
Jan 16
Full
Jan 24
Last Quarter

Hourly Weather History & Observations

Time (AST) Temp. Dew Point Humidity Pressure Visibility Wind Dir Wind Speed Gust Speed Precip Events Conditions
12:58 AM 48.9 °F 41.4 °F 75% 30.19 in 6.2 mi WNW 5.8 mph - N/A   Clear
1:58 AM 50.0 °F 42.4 °F 75% 30.18 in 6.2 mi West 6.9 mph - N/A   Clear
2:58 AM 49.6 °F 41.7 °F 74% 30.17 in 6.2 mi WNW 5.8 mph - N/A   Clear
3:58 AM 48.6 °F 40.6 °F 74% 30.16 in 6.2 mi WNW 3.5 mph - N/A   Clear
4:58 AM 48.0 °F 39.6 °F 73% 30.18 in 6.2 mi West 6.9 mph - N/A   Clear
5:58 AM 47.8 °F 38.7 °F 70% 30.19 in 6.2 mi WNW 8.1 mph - N/A   Clear
6:58 AM 48.6 °F 37.8 °F 66% 30.21 in 6.2 mi WNW 8.1 mph - N/A   Clear
7:58 AM 53.4 °F 39.4 °F 59% 30.22 in 6.2 mi West 8.1 mph - N/A   Clear
8:58 AM 59.7 °F 46.4 °F 61% 30.23 in 6.2 mi WNW 6.9 mph - N/A   Clear
9:58 AM 63.9 °F 47.5 °F 55% 30.22 in 6.2 mi WNW 11.5 mph - N/A   Clear
10:58 AM 66.0 °F 47.3 °F 51% 30.19 in 6.2 mi NW 9.2 mph - N/A   Clear
11:59 AM 68.0 °F 49.6 °F 52% 30.15 in 6.2 mi NW 8.1 mph - N/A   Clear
12:58 PM 68.5 °F 50.5 °F 53% 30.12 in 6.2 mi Variable 3.5 mph - N/A   Clear
1:58 PM 69.8 °F 49.3 °F 48% 30.10 in 6.2 mi WNW 4.6 mph - N/A   Clear
2:58 PM 70.0 °F 48.9 °F 47% 30.09 in 6.2 mi NNW 4.6 mph - N/A   Clear
3:58 PM 69.4 °F 49.3 °F 49% 30.09 in 6.2 mi North 2.3 mph - N/A   Clear
4:58 PM 67.8 °F 48.4 °F 50% 30.10 in 6.2 mi East 5.8 mph - N/A   Clear
5:58 PM 65.1 °F 52.9 °F 65% 30.12 in 6.2 mi ESE 4.6 mph - N/A   Clear
6:58 PM 63.9 °F 53.2 °F 68% 30.14 in 6.2 mi SE 3.5 mph - N/A   Clear
7:58 PM 59.4 °F 50.4 °F 72% 30.16 in 6.2 mi West 2.3 mph - N/A   Clear
8:58 PM 58.6 °F 50.7 °F 75% 30.16 in 6.2 mi WSW 2.3 mph - N/A   Clear
9:58 PM 57.0 °F 49.5 °F 76% 30.15 in 6.2 mi WSW 2.3 mph - N/A   Clear
10:58 PM 54.7 °F 48.2 °F 79% 30.14 in 6.2 mi NW 4.6 mph - N/A   Clear
11:58 PM 55.0 °F 48.0 °F 77% 30.13 in 6.2 mi NNW 3.5 mph - N/A   Clear